EXS527 EGNT-LGKR

Flight info

Callsign EXS527
Flight time N/A
Altitude 35000
Route GIRLI P18 GASKO Y250 KEFTE UY250 MAMUL L603 DOLAS DCT NAVPI DCT DODEN DCT NEGIX DCT DINKU M867 XERUM DCT BAVAX DCT RADIZ DCT GIMIX DCT ALIVO DCT UNIPA DCT VAKSU DCT RODON DCT LIMJA N732 PITAS
Aircraft B738/M-SDE2E3FGHIRWXY/LB1

Departure

Time 2026-05-05 17:50
Airport Newcastle International Airport (EGNT)

Arrival

Time N/A
Airport Corfu Ioannis Kapodistrias International Airport (LGKR)
Time Latitude Longitude Altitude Speed Heading
2026-05-05 17:31 55.03662 -1.70779 266 ft 0 kts
2026-05-05 17:33 55.03661 -1.70779 266 ft 0 kts
2026-05-05 17:43 55.03638 -1.70784 266 ft 4 kts 13°
2026-05-05 17:43 55.03614 -1.70800 266 ft 4 kts 38°
2026-05-05 17:43 55.03600 -1.70832 266 ft 3 kts 90°
2026-05-05 17:44 55.03600 -1.70838 266 ft 1 kts 94°
2026-05-05 17:46 55.03600 -1.70833 266 ft 1 kts 94°
2026-05-05 17:47 55.03599 -1.70818 266 ft 2 kts 95°
2026-05-05 17:47 55.03596 -1.70747 266 ft 10 kts 92°
2026-05-05 17:47 55.03584 -1.70656 266 ft 8 kts 131°
2026-05-05 17:47 55.03527 -1.70643 266 ft 9 kts 181°
2026-05-05 17:48 55.03470 -1.70644 266 ft 8 kts 179°
2026-05-05 17:48 55.03406 -1.70614 267 ft 10 kts 146°
2026-05-05 17:48 55.03378 -1.70547 266 ft 8 kts 83°
2026-05-05 17:48 55.03383 -1.70522 266 ft 0 kts 67°
2026-05-05 17:49 55.03394 -1.70476 266 ft 23 kts 67°
2026-05-05 17:49 55.03569 -1.69821 259 ft 94 kts 65°
2026-05-05 17:49 55.03939 -1.68459 255 ft 152 kts 63°
2026-05-05 17:50 55.04394 -1.66657 786 ft 165 kts 67°
2026-05-05 17:50 55.04810 -1.64785 1672 ft 168 kts 66°
2026-05-05 17:50 55.05247 -1.62816 2348 ft 180 kts 65°
2026-05-05 17:50 55.05714 -1.60715 2921 ft 193 kts 65°
2026-05-05 17:51 55.06077 -1.58338 3305 ft 214 kts 86°
2026-05-05 17:51 55.05644 -1.55701 3642 ft 243 kts 118°
2026-05-05 17:51 55.04359 -1.53565 4065 ft 272 kts 148°
2026-05-05 17:51 55.02508 -1.52631 4606 ft 286 kts 178°
2026-05-05 17:52 55.01173 -1.52863 4956 ft 283 kts 197°
2026-05-05 17:52 54.98801 -1.54660 5671 ft 277 kts 209°
2026-05-05 17:52 54.97647 -1.55681 6027 ft 275 kts 210°
2026-05-05 17:52 54.95945 -1.57216 6560 ft 276 kts 211°
2026-05-05 17:53 54.94226 -1.58731 7060 ft 278 kts 211°
2026-05-05 17:53 54.92489 -1.60234 7562 ft 280 kts 210°
2026-05-05 17:53 54.90748 -1.61735 8064 ft 279 kts 210°
2026-05-05 17:53 54.89090 -1.63404 8669 ft 273 kts 218°
2026-05-05 17:54 54.87535 -1.65359 9316 ft 278 kts 220°
2026-05-05 17:54 54.85978 -1.67388 9976 ft 283 kts 220°
2026-05-05 17:54 54.84392 -1.69461 10563 ft 287 kts 220°
2026-05-05 17:54 54.82787 -1.71553 11141 ft 288 kts 220°
2026-05-05 17:55 54.81190 -1.73641 11749 ft 288 kts 220°
2026-05-05 17:55 54.79592 -1.75735 12364 ft 287 kts 220°
2026-05-05 17:55 54.78003 -1.77812 12997 ft 287 kts 220°
2026-05-05 17:55 54.76416 -1.79884 13632 ft 288 kts 220°
2026-05-05 17:56 54.74813 -1.81975 14245 ft 290 kts 220°
2026-05-05 17:56 54.73191 -1.84086 14804 ft 293 kts 220°
2026-05-05 17:56 54.71542 -1.86237 15052 ft 299 kts 220°
2026-05-05 17:56 54.69856 -1.88434 15091 ft 298 kts 220°
2026-05-05 17:57 54.68207 -1.90572 15512 ft 297 kts 220°
2026-05-05 17:57 54.66512 -1.92661 15882 ft 304 kts 212°
2026-05-05 17:57 54.64496 -1.93927 16283 ft 312 kts 198°
2026-05-05 17:57 54.62367 -1.94770 16673 ft 315 kts 196°
2026-05-05 17:58 54.60210 -1.95525 16952 ft 324 kts 192°
2026-05-05 17:58 54.57882 -1.95379 17053 ft 350 kts 168°
2026-05-05 17:58 54.55516 -1.93997 17219 ft 368 kts 162°
2026-05-05 17:58 54.53074 -1.92370 17405 ft 382 kts 162°
2026-05-05 17:59 54.50575 -1.90700 17867 ft 388 kts 162°
2026-05-05 17:59 54.48011 -1.89037 18441 ft 390 kts 163°
2026-05-05 17:59 54.45460 -1.87436 18981 ft 391 kts 163°
2026-05-05 17:59 54.42856 -1.85847 19503 ft 393 kts 164°